Home   Weather   Al-Jamiliyah   Past weeks

Flag for Qatar Past Weather in Al-Jamiliyah, Qatar — Yesterday and Last 2 Weeks

Now
95 °F

Sunny.


Feels Like: 120 °F
Forecast: 88 / 109 °F
Wind: 3 mph from Northeast

Location: Doha International Airport

Current Time: Jul 21, 2017 at 7:54:01 am

Latest Report: Jul 21, 2017 at 7:00 am


Visibility: 10 mi

Pressure: 29.45 "Hg

Humidity: 67%

Dew Point: 82 °F

Location of Al-JamiliyahLocation

Past Weather in Al-Jamiliyah — Graph

°F

Al-Jamiliyah Temperature Yesterday

Maximum temperature yesterday: 104 °F (at 3:00 pm)
Minimum temperature yesterday: 91 °F (at 2:00 am)
Average temperature yesterday: 97 °F

High & Low Weather Summary for the Past Weeks

 TemperatureHumidityPressure
High115 °F (Jul 14, 12:00 pm)84% (Jul 8, 2:00 am)29.53 "Hg (Jul 8, 2:00 am)
Low90 °F (Jul 7, 5:00 am)9% (Jul 13, 12:00 pm)29.33 "Hg (Jul 7, 2:00 am)
Average98 °F55%29.43 "Hg
* Reported Jul 6 6:00 am — Jul 21 6:00 am, Al-Jamiliyah. Weather by CustomWeather, © 2017

Note: Actual official high and low records may vary slightly from our data, if they occured in-between our weather recording intervals... More about our weather records

Advertising

Al-Jamiliyah Weather History for the Previous 24 Hours

Scroll right to see more
 ConditionsComfort  
Time TempWeatherWind HumidityBarometerVisibility
6:00 am
Fri, Jul 21
91 °FSunny.1 mph75%29.42 "Hg10 mi
5:00 am90 °FPassing clouds.3 mph79%29.42 "HgN/A
4:00 am91 °FClear.6 mph75%29.39 "Hg10 mi
3:00 am91 °FClear.6 mph80%29.39 "Hg10 mi
2:00 am91 °FClear.8 mph75%29.39 "Hg10 mi
1:00 am91 °FClear.6 mph80%29.39 "Hg6 mi
12:00 am91 °FClear.7 mph84%29.39 "Hg5 mi
11:00 pm
Thu, Jul 20
93 °FClear.10 mph71%29.42 "Hg4 mi
10:00 pm93 °FClear.8 mph71%29.42 "Hg6 mi
9:00 pm93 °FClear.8 mph75%29.42 "Hg4 mi
8:00 pm93 °FClear.7 mph80%29.39 "Hg4 mi
7:00 pm95 °FHaze.13 mph75%29.39 "Hg3 mi
6:00 pm99 °FHaze.8 mph60%29.36 "Hg3 mi
5:00 pm100 °FHaze.8 mph53%29.33 "Hg3 mi
4:00 pm102 °FHaze.9 mph51%29.33 "Hg3 mi
3:00 pm104 °FClear.9 mph48%29.36 "Hg4 mi
2:00 pm102 °FClear.9 mph51%29.36 "Hg4 mi
1:00 pm102 °FClear.10 mph54%29.39 "Hg6 mi
12:00 pm102 °FPassing clouds.10 mph54%29.39 "HgN/A
11:00 am102 °FPassing clouds.12 mph54%29.42 "HgN/A
10:00 am100 °FSunny.14 mph50%29.42 "Hg10 mi
9:00 am100 °FSunny.15 mph47%29.42 "Hg10 mi
8:00 am99 °FSunny.10 mph53%29.42 "Hg10 mi
7:00 am97 °FSunny.14 mph63%29.42 "Hg10 mi
Weather by CustomWeather, © 2017

See weather overviewHow to use our weather pages